Location: Unspecified
(43.3830°N, 0.0000°E)
Time: 00:51:06
(UTC+00:00)

Vanguard 2 - Pass Details

Date: 26 June 2019
Orbit: 553 x 2938 km, 32.9° (Epoch: 20 July)

Event Time Altitude Azimuth Distance (km) Brightness Sun altitude
Rises 13:18:02 0° 260° (W) 4,348 11.7 64.7°
Reaches altitude 10° 13:22:19 10° 238° (WSW) 3,814 11.6 64.1°
Maximum altitude 13:27:40 15° 207° (SSW) 3,887 11.8 63.4°
Drops below altitude 10° 13:34:17 10° 177° (S) 4,871 12.0 62.5°
Sets 13:41:15 0° 159° (SSE) 6,329 12.3 61.5°
